[[{"header":{"parameterUnit":"m.s-1","parameterCategory":1,"la1":30.2991,"la2":30.254,"lo1":-89.0895,"lo2":-89.0444,"dy":0.0017,"dx":0.0017,"nx":28,"ny":28,"refTime":"2024-03-18T21:00:00:Z","depth":0,"parameterNumber":2,"parameterNumberName":"U-component_of_WINDS"},"data":[0,0,0,0,0,0,0,0,0,0,0,0,0,0,0,0,0,0,0,0,0,0,0,0,0,0,0,0,0,0,0,0,0,0,0,0,0,0,0,0,0,0,0,0,0,0,0,0,0,0,0,0,0,0,0,0,0,0,1.9301,1.9302,0,1.9383,1.9384,1.9385,1.9391,1.9391,1.939,1.9389,1.9475,1.9478,1.9481,0,0,0,0,0,0,0,0,0,0,0,0,0,1.9149,1.9152,1.9301,1.9302,1.9303,1.9383,1.9384,1.9386,1.9392,1.9391,1.9389,1.9388,1.9474,1.9477,1.9481,0,0,0,0,0,0,0,0,0,0,0,0,0,1.9222,1.9153,1.9301,1.9316,1.9318,1.9383,1.9384,1.9386,1.9392,1.9391,1.9389,1.9388,1.9472,1.9477,1.9482,1.9538,0,0,1.9496,1.9498,0,0,0,0,0,0,0,0,1.9218,1.9227,1.9313,1.9315,1.9317,1.9376,1.9362,1.9437,1.9392,1.9364,1.9389,1.9387,1.9443,1.945,1.9469,1.9542,1.9546,1.9496,1.9499,1.9501,1.9503,0,0,0,0,0,0,0,1.9213,1.9224,1.9334,1.9314,1.9317,1.9318,1.9327,1.9377,1.941,1.9366,1.9367,1.9376,1.9444,1.9464,1.9471,1.9547,1.9496,1.95,1.9503,1.9505,1.9668,1.967,0,0,0,0,0,0,1.9205,1.922,1.9331,1.9336,1.9263,1.9322,1.9332,1.9358,1.941,1.9416,1.9378,1.9376,1.9457,1.9465,1.9474,1.9541,1.9501,1.9506,1.9508,1.9667,1.9669,1.967,0,0,0,0,0,0,1.9201,1.9214,1.9328,1.9278,1.9293,1.9326,1.9356,1.9361,1.9381,1.9418,1.9424,1.9392,1.9456,1.9467,1.9521,1.9544,1.9508,1.9512,1.9665,1.9667,1.9669,1.9677,0,0,0,0,0,0,1.9197,1.9213,1.9235,1.9278,1.9295,1.9374,1.9357,1.9363,1.9389,1.9388,1.9433,1.9439,1.9456,1.9514,1.9526,1.955,1.9516,1.9663,1.9666,1.9669,1.9675,1.9679,1.9683,0,0,0,0,0,1.9191,1.9235,1.9236,1.925,1.9323,1.9375,1.9385,1.9402,1.939,1.9412,1.9436,1.9438,1.954,1.952,1.9533,1.9559,1.9662,1.9665,1.9668,1.9673,1.9678,1.9683,0,0,0,0,0,0,1.9194,1.9241,1.9243,1.9302,1.9334,1.9376,1.9405,1.9408,1.9445,1.9443,1.9464,1.9474,1.9527,1.9549,1.9525,1.9615,1.9599,1.9606,1.9598,1.9604,1.9608,1.9601,1.952,0,0,0,0,0,1.9202,1.924,1.9279,1.9327,1.9343,1.9371,1.9394,1.9405,1.944,1.9454,1.9482,1.9516,1.9555,1.9581,1.962,1.9678,1.9687,1.9703,1.9707,1.971,1.9714,1.9745,1.9751,1.9681,1.9681,1.9681,0,0,1.9218,1.9248,1.9271,1.9328,1.9355,1.9393,1.9383,1.9425,1.9453,1.9461,1.9512,1.9534,1.9574,1.9629,1.9656,1.9649,1.9736,1.9714,1.9716,1.9719,1.9749,1.9755,1.9761,1.9684,1.9683,1.9683,0,0,1.9265,1.9293,1.9335,1.9361,1.9401,1.9419,1.9429,1.947,1.9484,1.9537,1.9542,1.9577,1.9645,1.9672,1.9695,1.9751,1.9753,1.9764,1.9784,1.9814,1.9819,1.9824,1.9842,1.9849,1.9768,1.9768,1.9768,0,1.928,1.9338,1.9356,1.9397,1.9421,1.9429,1.9471,1.9496,1.9547,1.9563,1.9555,1.9639,1.9666,1.9727,1.9741,1.976,1.9771,1.9758,1.9817,1.9822,1.9827,1.9844,1.9851,1.9769,1.9769,1.9769,1.9769,0,1.9353,1.9393,1.9423,1.947,1.9498,1.9539,1.9562,1.9589,1.9596,1.9615,1.9667,1.97,1.9744,1.976,1.9769,1.9822,1.9816,1.9813,1.9797,1.9834,1.9851,1.9858,1.977,1.977,1.977,1.977,0,0,1.9406,1.9461,1.9471,1.9491,1.9535,1.9567,1.9608,1.965,1.9671,1.9706,1.974,1.9797,1.9793,1.9818,1.983,1.9856,1.9896,1.9849,1.985,1.9855,1.9954,1.9955,1.9963,1.9898,1.99,1.9901,1.995,0,1.9457,1.953,1.9546,1.9608,1.9645,1.9652,1.9687,1.9718,1.9736,1.977,1.979,1.9829,1.9822,1.9837,1.9863,1.9886,1.9916,1.9883,1.9929,1.9931,1.9917,1.9972,1.9974,2.0019,1.9957,1.9958,1.9959,0,1.9527,1.9561,1.9627,1.9663,1.9679,1.9711,1.975,1.9782,1.9817,1.9828,1.9856,1.9865,1.9907,1.989,1.9948,1.9925,1.9945,1.9959,1.9961,1.9965,1.9946,1.9976,2.0034,2.004,1.997,1.9969,1.9968,0,1.9555,1.9618,1.9665,1.9683,1.9728,1.975,1.9769,1.9802,1.9826,1.986,1.9876,1.9915,1.9936,1.9966,1.9985,1.9972,2.0041,2.0026,2.005,2.005,2.0064,2.0062,2.0124,2.0079,2.0079,2.0079,2.0079,0,1.961,1.9649,1.9678,1.9707,1.9751,1.9769,1.9812,1.9832,1.9861,1.9893,1.9902,1.9932,1.9956,1.9989,2.0005,2.0049,2.0059,2.0069,2.0072,2.0067,2.0065,2.0079,2.0076,2.0081,2.0081,2.008,2.008,0,1.9649,1.967,1.9721,1.9759,1.9769,1.98,1.9832,1.986,1.9878,1.9918,1.9929,1.9958,1.9997,2.0019,2.0069,2.0079,2.0128,2.013,2.0116,2.0117,2.0139,2.0135,2.0211,2.0221,2.0171,2.0171,2.0171,0,1.9682,1.9712,1.9752,1.9774,1.9794,1.9829,1.9853,1.9872,1.9896,1.9936,1.9959,1.9998,2.0031,2.0093,2.0118,2.0156,2.0159,2.0182,2.0164,2.0157,2.0156,2.0154,2.0156,2.0185,2.0185,2.0186,2.0186,0,1.9737,1.9745,1.9779,1.9815,1.9843,1.9873,1.9903,1.9921,1.9944,1.9971,2.0011,2.0036,2.0086,2.0124,2.0164,2.0184,2.0189,2.0192,2.0199,2.0193,2.0183,2.0186,2.0122,2.019,2.0189,2.0189,2.0189,2.0189,1.9772,1.9798,1.983,1.9867,1.9891,1.9918,1.9945,1.9966,1.9999,2.0041,2.005,2.0091,2.0123,2.0176,2.0198,2.023,2.0225,2.0236,2.0239,2.0241,2.024,2.0178,2.0237,2.0237,2.0237,2.0237,2.0237,0,1.9826,1.9846,1.988,1.992,1.9949,1.995,1.9983,2.0006,2.0042,2.0072,2.0103,2.0147,2.0184,2.0212,2.025,2.027,2.0273,2.0279,2.0277,2.0281,2.0243,2.0232,2.0276,2.0276,2.0276,2.0276,2.0276,2.0276,1.9857,1.9901,1.9913,1.9968,1.9988,2.0028,2.0046,2.0071,2.0094,2.0143,2.0173,2.0191,2.0219,2.0258,2.0292,2.0299,2.0312,2.0318,2.0325,2.0288,2.0284,2.028,2.027,2.0321,2.0321,2.036,2.036,2.036]},{"header":{"parameterUnit":"m.s-1","parameterCategory":1,"la1":30.2991,"la2":30.254,"lo1":-89.0895,"lo2":-89.0444,"dy":0.0017,"dx":0.0017,"nx":28,"ny":28,"refTime":"2024-03-18T21:00:00:Z","depth":0,"parameterNumber":3,"parameterNumberName":"V-component_of_WINDS"},"data":[0,0,0,0,0,0,0,0,0,0,0,0,0,0,0,0,0,0,0,0,0,0,0,0,0,0,0,0,0,0,0,0,0,0,0,0,0,0,0,0,0,0,0,0,0,0,0,0,0,0,0,0,0,0,0,0,0,0,2.0539,2.0539,0,2.0476,2.0476,2.0475,2.0441,2.0441,2.0441,2.0441,2.0373,2.0371,2.037,0,0,0,0,0,0,0,0,0,0,0,0,0,2.0626,2.0624,2.054,2.0539,2.0538,2.0477,2.0476,2.0475,2.0441,2.0441,2.0441,2.0441,2.0374,2.0371,2.0369,0,0,0,0,0,0,0,0,0,0,0,0,0,2.0578,2.0624,2.054,2.0514,2.0511,2.0477,2.0476,2.0475,2.0441,2.0441,2.0441,2.044,2.0374,2.0372,2.0369,2.0355,0,0,2.0361,2.036,0,0,0,0,0,0,0,0,2.0581,2.0575,2.0518,2.0515,2.0512,2.0466,2.0481,2.0434,2.0441,2.0467,2.0441,2.044,2.0404,2.0399,2.0387,2.0352,2.0349,2.0361,2.0359,2.0358,2.0358,0,0,0,0,0,0,0,2.0584,2.0577,2.0514,2.0517,2.0514,2.0503,2.0497,2.0472,2.0437,2.0465,2.0462,2.0455,2.0402,2.039,2.0385,2.0348,2.0361,2.0359,2.0357,2.0356,2.0294,2.0294,0,0,0,0,0,0,2.0592,2.058,2.0516,2.0513,2.0547,2.0502,2.0494,2.0481,2.0437,2.043,2.0456,2.0454,2.0394,2.0388,2.0383,2.0361,2.0358,2.0356,2.0354,2.0294,2.0294,2.0294,0,0,0,0,0,0,2.0594,2.0587,2.0519,2.0546,2.0536,2.0501,2.0486,2.048,2.0468,2.043,2.0423,2.045,2.0394,2.0386,2.0362,2.0358,2.0355,2.0352,2.0294,2.0294,2.0294,2.032,0,0,0,0,0,0,2.0597,2.0588,2.0583,2.0546,2.0535,2.0501,2.0486,2.0479,2.0463,2.0461,2.0423,2.0416,2.0393,2.0366,2.0359,2.0355,2.035,2.0295,2.0294,2.0294,2.0319,2.032,2.0322,0,0,0,0,0,2.06,2.0593,2.0583,2.0576,2.0529,2.0501,2.0494,2.0469,2.0464,2.0458,2.0433,2.0417,2.036,2.0364,2.0356,2.0351,2.0295,2.0294,2.0294,2.0318,2.032,2.0322,0,0,0,0,0,0,2.0631,2.0588,2.0577,2.0558,2.0533,2.0495,2.0487,2.0472,2.0448,2.0446,2.0415,2.0406,2.0384,2.0365,2.0369,2.0333,2.0325,2.0324,2.0346,2.0348,2.0349,2.0354,2.0348,0,0,0,0,0,2.0636,2.0617,2.058,2.0567,2.0555,2.0523,2.051,2.0492,2.0465,2.0454,2.0428,2.0401,2.0376,2.0361,2.0337,2.0316,2.0305,2.0308,2.031,2.0311,2.0309,2.0294,2.0294,2.0294,2.0294,2.0294,0,0,2.0645,2.0619,2.061,2.0573,2.0551,2.0531,2.0515,2.0495,2.0479,2.0451,2.0426,2.0405,2.0373,2.0349,2.0337,2.0332,2.0307,2.0311,2.0312,2.031,2.0294,2.0294,2.0294,2.0293,2.0294,2.0294,0,0,2.0652,2.0631,2.0617,2.0596,2.0564,2.0542,2.0539,2.0502,2.0487,2.0462,2.0439,2.0419,2.0378,2.0355,2.0338,2.0333,2.0317,2.0326,2.0333,2.0318,2.0318,2.0318,2.0313,2.0313,2.0325,2.0325,2.0325,0,2.0667,2.0637,2.0611,2.0592,2.0575,2.0549,2.0532,2.0513,2.0474,2.0462,2.0458,2.0404,2.038,2.0349,2.0348,2.0336,2.0329,2.033,2.032,2.032,2.0319,2.0315,2.0313,2.0326,2.0326,2.0326,2.0326,0,2.0657,2.0636,2.0628,2.0591,2.0574,2.0556,2.0525,2.051,2.0493,2.0471,2.0443,2.0414,2.0382,2.0373,2.0357,2.0339,2.0337,2.0327,2.0318,2.0321,2.0316,2.0314,2.0328,2.0327,2.0327,2.0327,0,0,2.0682,2.063,2.0627,2.0609,2.0571,2.0553,2.0533,2.0502,2.0489,2.0462,2.0443,2.0408,2.0397,2.0378,2.0358,2.0345,2.034,2.0336,2.0335,2.0336,2.0315,2.0322,2.0321,2.0329,2.0328,2.0328,2.0317,0,2.0682,2.0646,2.062,2.0593,2.0572,2.0546,2.0528,2.0501,2.0479,2.0457,2.0432,2.0407,2.0397,2.0384,2.037,2.0344,2.0335,2.0344,2.0308,2.0307,2.0316,2.0318,2.0326,2.0317,2.0315,2.0315,2.0314,0,2.0677,2.0652,2.0623,2.0584,2.0574,2.0559,2.0527,2.0507,2.0474,2.0459,2.0436,2.0416,2.0391,2.0385,2.0348,2.0355,2.0338,2.0322,2.0321,2.0316,2.0311,2.0312,2.0314,2.0312,2.0312,2.0312,2.0312,0,2.0696,2.0654,2.0631,2.0616,2.0572,2.0561,2.0541,2.0509,2.0491,2.0463,2.045,2.0419,2.0401,2.0376,2.0347,2.0346,2.0312,2.0304,2.0297,2.0297,2.029,2.0291,2.0289,2.0282,2.0282,2.0282,2.0282,0,2.0698,2.0681,2.0638,2.0624,2.0603,2.0573,2.0552,2.053,2.0501,2.048,2.0455,2.0435,2.0398,2.0373,2.035,2.0321,2.0314,2.0299,2.0293,2.0301,2.0302,2.0289,2.0288,2.0282,2.0282,2.0282,2.0282,0,2.0715,2.0687,2.0659,2.0619,2.0608,2.0594,2.0558,2.0541,2.0518,2.0491,2.0483,2.0445,2.0414,2.0382,2.034,2.0324,2.0296,2.0288,2.0307,2.0303,2.0297,2.0297,2.0285,2.028,2.0278,2.0278,2.0278,0,2.0718,2.0704,2.0662,2.0646,2.0627,2.0603,2.0584,2.0553,2.0534,2.0495,2.0482,2.045,2.0422,2.0373,2.0341,2.0307,2.0298,2.0295,2.0292,2.03,2.0295,2.0296,2.0293,2.0296,2.0297,2.0297,2.0297,0,2.0725,2.0711,2.0686,2.0655,2.0633,2.0607,2.058,2.0568,2.0531,2.0511,2.0479,2.0457,2.0414,2.0381,2.0343,2.032,2.0301,2.0298,2.0294,2.0302,2.0312,2.0304,2.0309,2.0298,2.0298,2.0298,2.0298,2.0298,2.0733,2.0719,2.0686,2.0658,2.0634,2.0609,2.0591,2.0565,2.0538,2.0501,2.0483,2.0451,2.0416,2.0364,2.0341,2.0313,2.0308,2.0303,2.0302,2.0301,2.0301,2.0318,2.0307,2.0307,2.0307,2.0306,2.0306,0,2.0737,2.0715,2.0689,2.0652,2.0629,2.0614,2.0583,2.0564,2.0536,2.0506,2.0478,2.044,2.0407,2.0371,2.0336,2.032,2.031,2.0311,2.0312,2.0306,2.0309,2.0315,2.032,2.032,2.032,2.032,2.032,2.032,2.0737,2.071,2.0692,2.0653,2.0629,2.0598,2.0581,2.0556,2.0532,2.0491,2.0463,2.0441,2.0407,2.0368,2.0336,2.0326,2.0313,2.0316,2.0304,2.0307,2.0306,2.0305,2.0311,2.0314,2.0314,2.0303,2.0303,2.0302]}]]